Regional Weather Roundup
Issued by NWS Newport/Morehead, NC

Home | Current Version | Previous Version | Text Only | Print | Product List | Glossary On
Versions: 1 2 3 4 5 6 7 8 9 10 11 12 13 14 15 16 17 18 19 20 21 22 23 24 25 26 27 28 29 30 31 32 33 34 35 36 37 38 39 40 41 42 43 44 45 46 47 48 49 50
000
ASUS42 KMHX 312222
RWRMHX
WEATHER ROUNDUP FOR EASTERN NORTH CAROLINA
NATIONAL WEATHER SERVICE NEWPORT/MOREHEAD CITY NC
600 PM EDT FRI OCT 31 2014

NOTE: "FAIR" INDICATES FEW OR NO CLOUDS BELOW 12,000 FEET
WITH NO SIGNIFICANT WEATHER AND/OR OBSTRUCTIONS TO VISIBILITY

NCZ015>017-031-032-045>047-102-103-312300-
NORTH COAST

CITY           SKY/WX    TMP DP  RH WIND       PRES   REMARKS
EDENTON        MOCLDY    56  46  70 NE6       29.81R
ELIZABETH CITY CLOUDY    57  45  62 N15       29.80R
KITTY HAWK     CLOUDY    59  50  71 N10G17    29.76R
MANTEO         CLOUDY    59  50  72 N13G18    29.77R

$$

NCZ045>047-081-094-103-104-312300-
CENTRAL COAST

CITY           SKY/WX    TMP DP  RH WIND       PRES   REMARKS
FRISCO         MOCLDY    60  51  72 N12G18    29.75R
SWANQUARTER      N/A     59 N/A N/A N5G10     29.74S

$$

NCZ095-097-098-100-101-312300-
SOUTHERN COAST

CITY           SKY/WX    TMP DP  RH WIND       PRES   REMARKS
BEAUFORT       CLOUDY    60  48  64 N9        29.76S
CEDAR ISLAND     N/A     61 N/A N/A NW12G18   29.79S
JACKSONVILLE   PTCLDY    62  42  47 N9        29.77S
PINEY ISLAND   CLOUDY    64  47  53 N9        29.77R
WILMINGTON     CLEAR     62  44  51 N7        29.78R


$$

NCZ011>013-027>030-043-044-078>080-089-090>093-098-312300-
COASTAL PLAIN

CITY           SKY/WX    TMP DP  RH WIND       PRES   REMARKS
AHOSKIE        NOT AVBL
CLINTON        CLEAR     58  46  64 CALM      29.80F
ELIZABETHTOWN  CLEAR     60  46  59 CALM      29.79F
GOLDSBORO      PTCLDY    60  46  60 N7        29.78F
GREENVILLE     CLEAR     57  43  58 N6        29.83S
HAVELOCK       MOCLDY    61  42  49 N10       29.78S
KENANSVILLE    CLEAR     57  42  55 N3        29.80S
KINSTON        CLEAR     59  43  55 N6        29.80F
NEW BERN       PTCLDY    62  43  49 N8        29.79S
RICHLANDS      CLEAR     57  43  58 NW3       29.79R
ROCKY MOUNT    PTCLDY    57  43  59 N6        29.81F
WASHINGTON     CLEAR     55  43  62 N3        29.80R
WHITEVILLE     CLEAR     60  46  59 CALM      29.79S

$$

AMZ130-135-150-152-154-156-158-170-250-252-270-ANZ085-086-088-633-658-670-312300-
MARINE OBSERVATIONS

STATION/POSITION TIME  TEMP    WIND        PRES    WAVE   SWELL
                       AIR SEA DIR/SP/G            HT/PER HT/PER
                 (UTC) (F)     (DEG/KT/KT) (MB)    (FT/S) (FT/S)
CHESAPEAKE LIGHT 2200   56      10/ 19/ 21 1009.4
64 E VA BEACH    2200   60 66  360/ 23/ 27 1006.7    6/ 6
DUCK             2200   59 65   10/ 19/ 27 1007.1
2 E DUCK         NOT AVBL
10 NE DUCK       2200      67                N/A     5/ 6
OREGON INLET     2200   60 64  360/ 10/ 15 1007.7
13E OREGON INLT  2200      68                N/A     6/ 6
HATTERAS CG      2200   61 65  360/ 19/ 22 1008.0
DIAMOND BUOY     2200   65     360/ 21/ 27 1006.4    6/ 6
17 S OCRACOKE    NOT AVBL
CAPE LOOKOUT     2200   61     360/ 13/ 15 1007.7
BEAUFORT LAB     2200   62 67   10/ 10/ 13 1007.1
30 SE NEW RIVER  2200   65 74   10/ 12/ 14 1007.1    4/ 7   3/ 7
5 SE WRIGHTSVLE  2200   62 71  350/ 14/ 16   N/A
225 S CAPE HAT   2150   74 78  250/  6/  8 1005.8    5/ 8   5/ 8
41 SE CHARLESTON 2200   66 76  360/ 14/ 17 1008.0    6/ 7   3/ 7

$$



USA.gov is the U.S. government's official web portal to all federal, state and local government web resources and services.